Regional Weather Roundup
Issued by NWS

Home | Current Version | Previous Version | Text Only | Print | Product List | Glossary Off
Versions: 1 2 3 4 5 6 7 8 9 10 11 12 13 14 15 16 17 18 19 20 21 22 23 24 25 26 27 28 29 30 31 32 33 34 35 36 37 38 39 40 41 42 43 44 45 46 47 48 49 50

000
ASUS43 KDTX 021901
RWRMI
MICHIGAN HOURLY REGIONAL WEATHER ROUNDUP
NATIONAL WEATHER SERVICE DETROIT/PONTIAC MI
300 PM EDT MON MAY 02 2016

NOTE: "FAIR" INDICATES FEW OR NO CLOUDS BELOW 12,000 FEET WITH NO
SIGNIFICANT WEATHER AND/OR OBSTRUCTION TO VISIBILITY.

MIZ047>049-052>055-059>063-066>070-074>076-081>083-022000-
SOUTHEAST LOWER MICHIGAN

CITY           SKY/WX    TMP DP  RH WIND       PRES   REMARKS
ADRIAN         CLOUDY    50  45  83 E7        30.04R
ALMA           SUNNY     56  39  53 E8        30.04S
ANN ARBOR      CLOUDY    52  45  77 VRB3      30.03R
BAD AXE        SUNNY     55  36  50 NE9       30.03F
CARO           SUNNY     59  39  47 NE7       30.01F
DETROIT CITY   CLOUDY    51  41  68 E9        30.04R
DETROIT        CLOUDY    52  43  71 E6        30.04R
FLINT          CLOUDY    56  41  57 E5        30.03S
GROSSE ILE     CLOUDY    54  46  76 E3        30.02R
HILLSDALE      CLOUDY    47  45  91 NE5       30.03R FOG
HOWELL         CLOUDY    51  45  77 NE5       30.03R

CITY           SKY/WX    TMP DP  RH WIND       PRES   REMARKS
JACKSON        CLOUDY    51  44  77 E5        30.04R
LAMBERTVILLE   CLOUDY    51  47  84 CALM      30.04R
LANSING        CLOUDY    52  43  71 N6        30.05R
LAPEER         CLOUDY    54  39  58 NE8       30.03R
MASON          CLOUDY    51  44  79 NE7       30.04R
MONROE         CLOUDY    52  46  79 E6        30.01F
MT. CLEMENS    CLOUDY    54  46  76 VRB2      30.02R
PONTIAC        CLOUDY    52  42  69 VRB5      30.02R
PORT HOPE        N/A     47  41  80 N6        30.04S
PORT HURON     SUNNY     52  43  71 N7        30.03R
TRI CITIES     SUNNY     58  41  53 NE12      30.05F
MIDLAND        FAIR      57  36  46 NE10G17   30.04S
TROY           CLOUDY    53  44  73 N6        30.04R
SAGINAW HB     MOSUNNY   54  43  66 N10       30.03R
$$
MIZ043>046-050>051-056>058-064>065-071>073-077>080-022000-
SOUTHWEST LOWER MICHIGAN

CITY           SKY/WX    TMP DP  RH WIND       PRES   REMARKS
BATTLE CREEK   CLOUDY    51  44  77 VRB6      30.05R
BENTON HARBOR  CLOUDY    50  40  68 VRB3      30.05R
BIG RAPIDS     MOSUNNY   59  34  38 NE7       30.01F
COLDWATER        N/A    N/A N/A N/A MISG        N/A
FREMONT        PTSUNNY   61  30  31 E10G16    30.01S
HOLLAND        CLOUDY    56  40  55 VRB5      30.04R
GRAND RAPIDS   CLOUDY    56  41  57 E8        30.04R
IONIA          CLOUDY    52  41  67 N3        30.04R
KALAMAZOO      CLOUDY    52  42  69 E5        30.05R
LUDINGTON      MOSUNNY   59  37  44 NW13G18   30.03F
MARSHALL       CLOUDY    48  44  85 NE3       30.04R
MOUNT PLEASANT SUNNY     59  33  37 E12G18    30.03R
MUSKEGON       PTSUNNY   61  36  39 E12G17    30.03S
SOUTH HAVEN    CLOUDY    50  39  67 N9        30.04S
$$
MIZ016>042-022000-
NORTHERN LOWER MICHIGAN

CITY           SKY/WX    TMP DP  RH WIND       PRES   REMARKS
ALPENA         PTSUNNY   62  32  32 E8        30.04S
BEAVER ISLAND  PTSUNNY   62  35  36 W8        30.05S
BELLAIRE       PTSUNNY   62  30  29 W8G16     30.02F
CADILLAC       CLOUDY    59  31  35 NE3       30.02S
CHARLEVOIX     SUNNY     56  37  48 NW8       30.08F
FRANKFORT      SUNNY     58  38  47 N12       30.05S
GAYLORD        PTSUNNY   59  27  29 VRB6      30.02F
HARBOR SPRINGS MOSUNNY   48  37  65 S6        30.05S
HOUGHTON LAKE  CLOUDY    60  29  30 VRB7      30.02F
MANISTEE       MOSUNNY   55  36  47 N12       30.05S
OSCODA         SUNNY     56  35  44 E9        30.03F
PELLSTON       CLOUDY    62  28  27 NE9       30.04S
ROGERS CITY    SUNNY     56  33  42 N5        30.06S
TRAVERSE CITY  MOSUNNY   59  36  42 N7        30.03F
$$
MIZ007>008-015-022000-
EASTERN UPPER MICHIGAN

CITY           SKY/WX    TMP DP  RH WIND       PRES   REMARKS
KINROSS          N/A     61  30  31 NW14      30.03S
MACKINAC ISLAN CLOUDY    56  33  41 W5        30.04S
NEWBERRY       PTSUNNY   61  33  35 N7        30.03F
S. S. MARIE    SUNNY     61  32  33 NW13G18   30.03S
MUNISING         N/A     47  38  71 NE9       30.09F
$$
MIZ004>006-011>014-085-022000-
CENTRAL UPPER MICHIGAN

CITY           SKY/WX    TMP DP  RH WIND       PRES   REMARKS
MANISTIQUE     CLOUDY    50  37  61 S6        30.05S
ESCANABA       PTSUNNY   59  34  38 S12       30.05S
MENOMINEE      SUNNY     57  36  44 SE10      30.06S
SAWYER-GWINN   SUNNY     54  30  40 NE16      30.09F
$$
MIZ001>003-009>011-084-022000-
WESTERN UPPER MICHIGAN

CITY           SKY/WX    TMP DP  RH WIND       PRES   REMARKS
IRON MOUNTAIN  MOSUNNY   64  27  24 S6        30.03F
HOUGHTON       SUNNY     59  31  34 W8        30.06F
COPPER HARBOR    N/A     45  38  76 CALM      30.08F
IRONWOOD         N/A     59  32  36 N8        30.04F
$$

ABBREVIATIONS USED IN REMARKS
   TC - TEMPERATURE IN CELSIUS
  WCI - WIND CHILL INDEX
   HX - HEAT INDEX
  VSB - VISIBILITY





USA.gov is the U.S. government's official web portal to all federal, state and local government web resources and services.